User: anonymous   Login
Location: Caltech
(34.1382°N, 118.1253°W)
Time: 04:14:11
(UTC-08:00)
Language:

NOSS 3-2 (A) - Orbit

View from above orbital plane
View from above orbital plane
View from above satellite
View from above satellite

Ground track
Ground track

The orbit data is extracted from the following two-line orbital elements,

1 28095U 03054A   14351.23606429 0.00000040  00000-0  62099-4 0    09
2 28095  63.4290 121.6747 0223000 357.9443   2.0557 13.41300352    01
Epoch (UTC): 17 December 2014 05:39:55
Eccentricity: 0.0223000
inclination: 63.4290°
perigee height: 937 km
apogee height: 1271 km
right ascension of ascending node: 121.6747°
argument of perigee: 357.9443°
revolutions per day: 13.41300352
mean anomaly at epoch: 2.0557°
orbit number at epoch: 0

The dashed part of the orbit path shows where the satellite is in the earth's shadow,  

DLR